User: anonymous   Login
Location: Raven Hill Discovery Center
(45.1336°N, 85.0553°W)
Time: 22:03:24
(UTC-04:00)
Language:

Cosmos 1470 - Orbit

View from above orbital plane
View from above orbital plane
View from above satellite
View from above satellite

Ground track
Ground track

The orbit data is extracted from the following two-line orbital elements,

1 14147U 83061A   15089.16256584  .00003587  00000-0  22636-3 0  9990
2 14147 082.5089 113.3215 0014226 146.3582 213.8553 15.08728954482584
Epoch (UTC): 30 March 2015 03:54:05
Eccentricity: 0.0014226
inclination: 82.5089°
perigee height: 530 km
apogee height: 550 km
right ascension of ascending node: 113.3215°
argument of perigee: 146.3582°
revolutions per day: 15.08728954
mean anomaly at epoch: 213.8553°
orbit number at epoch: 48258

The dashed part of the orbit path shows where the satellite is in the earth's shadow,  

DLR